Location: Kunchanapalle
(16.4623°N, 80.6176°E)
Time: 09:14:24
(UTC+00:00)

CZ-4B R/B - Pass Details

Date: 13 August 2020
Orbit: 486 x 652 km, 97.9° (Epoch: 18 September)

Event Time Altitude Azimuth Distance (km) Brightness Sun altitude
Rises 23:12:45 0° 16° (NNE) 2,928 7.1 -16.5°
Reaches altitude 10° 23:15:01 10° 20° (NNE) 2,001 6.2 -16.0°
Maximum altitude 23:19:20 62° 101° (E) 688 3.5 -15.0°
Drops below altitude 10° 23:23:26 10° 182° (S) 1,908 5.4 -14.1°
Sets 23:25:33 0° 185° (S) 2,778 6.2 -13.6°
